STARLINK-11434 [DTC]

Last updated on Thu Jan 23 2025 00:02:04 GMT+0000 (Coordinated Universal Time)

1 62420U 24249M 25022.45634814 .00011589 00000+0 69305-4 0 9991 2 62420 42.9991 127.4000 0001559 275.7621 84.3071 15.77876199 4797
UTC large
Height (km)
Speed (km/s)
/
Latitude / Longitude
Inclination (degrees)
Orbital Period (minutes)
Azimuth
Elevation
Range (km)
Doppler Factor

Next 0 passes for location: London (51.5072 / 0.1276)

Sorry there are no passes over London.